This demonstration page uses our WeatherBlox Daily Observations layout. Learn more.

Left ArrowRight Arrow

44.8408, -93.29828

Hourly Observations for March 18, 2020

Temp ( °F °C ) Dew Point ( °F °C ) Humidity (%) Winds ( mph kmh ) Pressure ( in mb ) Visibility ( mi km ) Precip ( " mm )
12:35 am 00:35 Cloudy 38 3.3 29 -1.7 70 70 S 8 13 30.16 1021 10 16 0.00 0.00
12:53 am 00:53 Cloudy 38 3.3 29 -1.7 70 70 S 9 15 30.15 1021 9 14 0.00 0.00
1:41 am 01:41 Cloudy 37 2.8 31 -0.6 79 79 SSE 6 9 30.16 1021 10 16 0.00 0.00
1:53 am 01:53 Cloudy 37 2.8 31 -0.6 79 79 SSE 5 7 30.14 1021 10 16 0.00 0.00
2:53 am 02:53 Cloudy 37 2.8 29 -1.7 73 73 ESE 6 9 30.12 1020 10 16 0.00 0.00
3:53 am 03:53 Cloudy 37 2.8 29 -1.7 73 73 ESE 10 17 30.10 1019 10 16 0.00 0.00
4:53 am 04:53 Cloudy 38 3.3 29 -1.7 70 70 SE 8 13 30.09 1019 10 16 0.00 0.00
5:53 am 05:53 Cloudy 38 3.3 30 -1.1 73 73 SSE 9 15 30.08 1019 10 16 0.00 0.00
6:26 am 06:26 Cloudy 37 2.8 31 -0.6 79 79 SSE 9 15 30.09 1019 10 16 0.00 0.00
6:53 am 06:53 Cloudy 37 2.8 31 -0.6 79 79 SE 8 13 30.07 1018 10 16 0.00 0.00
7:23 am 07:23 Cloudy 37 2.8 32 0 82 82 SE 9 15 30.09 1019 10 16 0.00 0.00
7:30 am 07:30 Cloudy 37 2.8 32 0 82 82 SE 10 17 30.09 1019 10 16 0.00 0.00
7:53 am 07:53 Cloudy 37 2.8 32 0 82 82 SE 9 15 30.07 1018 9 14 0.00 0.00
8:53 am 08:53 Cloudy 37 2.8 33 0.6 86 86 SE 8 13 30.07 1018 7 11 0.00 0.00
9:37 am 09:37 Cloudy with Drizzle 37 2.8 34 1.1 89 89 SE 10 17 30.10 1019 5 8 0.00 0.00
9:53 am 09:53 Cloudy with Drizzle 37 2.8 34 1.1 89 89 SSE 7 11 30.08 1019 5 8 0.00 0.00
11:53 am 11:53 Cloudy 40 4.4 35 1.7 83 83 SSE 7 11 30.07 1018 10 16 0.00 0.00
12:53 pm 12:53 Cloudy 43 6.1 36 2.2 76 76 SSE 7 11 30.06 1018 10 16 0.00 0.00
1:53 pm 13:53 Cloudy 43 6.1 36 2.2 76 76 ESE 7 11 30.05 1018 10 16 0.00 0.00
2:53 pm 14:53 Cloudy 43 6.1 36 2.2 76 76 ESE 7 11 30.04 1017 8 13 0.00 0.00
3:44 pm 15:44 Cloudy 44 6.7 36 2.2 73 73 E 6 9 30.03 1017 8 13 0.00 0.00
3:53 pm 15:53 Cloudy 44 6.7 36 2.2 73 73 ESE 7 11 30.03 1017 8 13 0.00 0.00
4:53 pm 16:53 Cloudy 44 6.7 36 2.2 73 73 SE 7 11 30.03 1017 10 16 0.00 0.00
5:53 pm 17:53 Cloudy 44 6.7 36 2.2 73 73 E 8 13 30.03 1017 9 14 0.00 0.00
6:53 pm 18:53 Cloudy 43 6.1 36 2.2 76 76 SE 8 13 30.06 1018 9 14 0.00 0.00
7:53 pm 19:53 Cloudy 42 5.6 36 2.2 79 79 ESE 9 15 30.04 1017 10 16 0.00 0.00
8:01 pm 20:01 Cloudy 42 5.6 36 2.2 79 79 SE 9 15 30.05 1017 10 16 0.00 0.00
8:53 pm 20:53 Cloudy 42 5.6 36 2.2 79 79 SE 6 9 30.07 1018 10 16 0.00 0.00
9:53 pm 21:53 Cloudy 42 5.6 36 2.2 79 79 SE 7 11 30.05 1018 10 16 0.00 0.00
10:53 pm 22:53 Cloudy 41 5 36 2.2 82 82 SSE 6 9 30.07 1018 8 13 0.00 0.00
11:43 pm 23:43 Cloudy 41 5 37 2.8 86 86 SE 9 15 30.07 1018 8 13 0.00 0.00
11:53 pm 23:53 Cloudy 40 4.4 37 2.8 89 89 SSE 12 19 30.06 1018 8 13 0.00 0.00

Powered by AerisWeather